Location: Newark
(48.5156°N, 1.8989°W)
Time: 03:32:31
(UTC+00:00)

SR - All Passes

Search period start: 21 November 2019 00:00
Search period end: 01 December 2019 00:00
Orbit: 573 x 882 km, 66.7° (Epoch: 20 November)

Date Brightness Start Highest point End Pass type
(mag) Time Alt. Az. Time Alt. Az. Time Alt. Az.
21 Nov - 01:03:05 10° WNW 01:05:22 12° W 01:07:36 10° WSW night (unlit)
21 Nov - 13:51:44 10° S 13:56:43 41° ESE 14:02:05 10° NE daylight
21 Nov - 15:33:38 10° WSW 15:38:51 43° NW 15:44:26 10° NNE daylight
21 Nov - 17:18:55 10° WNW 17:22:33 17° NNW 17:26:17 10° NNE visible
21 Nov - 19:04:28 10° NNW 19:07:11 13° N 19:09:54 10° NNE visible
21 Nov - 20:46:51 10° NNW 20:51:33 23° NNE 20:56:11 10° E visible
21 Nov - 22:28:41 10° NNW 22:34:41 75° NE 22:40:28 10° SE visible
22 Nov - 00:11:42 10° WNW 00:16:14 23° WSW 00:20:38 10° SSW night (unlit)
22 Nov - 13:03:17 10° SSE 13:07:25 23° ESE 13:11:47 10° ENE daylight
22 Nov - 14:43:34 10° SW 14:48:58 70° NW 14:54:49 10° NNE daylight
22 Nov - 16:27:52 10° WNW 16:32:11 22° NNW 16:36:40 10° NNE daylight
22 Nov - 18:13:58 10° NNW 18:16:36 13° N 18:19:15 10° NNE visible
22 Nov - 19:57:16 10° NNW 20:01:12 18° NNE 20:05:08 10° ENE visible
22 Nov - 21:39:04 10° NNW 21:44:49 47° NE 21:50:25 10° ESE visible
22 Nov - 23:21:25 10° NW 23:26:56 40° WSW 23:32:14 10° S night (unlit)
23 Nov - 12:16:15 10° ESE 12:18:19 12° E 12:20:25 10° ENE daylight
23 Nov - 13:53:56 10° SSW 13:59:17 70° ESE 14:05:04 10° NE daylight
23 Nov - 15:37:04 10° W 15:41:57 30° NW 15:47:06 10° NNE daylight
23 Nov - 17:23:00 10° NW 17:26:03 14° NNW 17:29:09 10° NNE visible
23 Nov - 19:07:32 10° NNW 19:10:44 15° NNE 19:13:56 10° NE visible
23 Nov - 20:49:29 10° NNW 20:54:47 32° NE 20:59:58 10° E visible
23 Nov - 22:31:29 10° NW 22:37:26 70° WSW 22:43:08 10° SSE night (unlit)
24 Nov - 00:15:55 10° WNW 00:18:29 13° W 00:21:01 10° SW night (unlit)
24 Nov - 13:04:51 10° S 13:09:49 39° ESE 13:15:08 10° NE daylight
24 Nov - 14:46:38 10° WSW 14:51:54 45° NW 14:57:32 10° NNE daylight
24 Nov - 16:31:50 10° WNW 16:35:34 17° NNW 16:39:23 10° NNE daylight
24 Nov - 18:17:29 10° NNW 18:20:11 13° N 18:22:53 10° NNE visible
24 Nov - 19:59:56 10° NNW 20:04:34 23° NNE 20:09:09 10° E visible
24 Nov - 21:41:46 10° NNW 21:47:45 72° NE 21:53:30 10° SE visible
24 Nov - 23:24:43 10° NW 23:29:21 24° WSW 23:33:50 10° SSW night (unlit)
25 Nov - 12:16:28 10° SSE 12:20:32 22° ESE 12:24:49 10° ENE daylight
25 Nov - 13:56:35 10° SW 14:02:02 73° NW 14:07:54 10° NNE daylight
25 Nov - 15:40:48 10° W 15:45:12 22° NNW 15:49:46 10° NNE daylight
25 Nov - 17:26:56 10° NNW 17:29:36 13° N 17:32:17 10° NNE visible
25 Nov - 19:10:20 10° NNW 19:14:12 17° NNE 19:18:04 10° ENE visible
25 Nov - 20:52:09 10° NNW 20:57:52 45° NE 21:03:25 10° ESE visible
25 Nov - 22:34:28 10° NW 22:40:02 42° WSW 22:45:22 10° S night (unlit)
26 Nov - 11:29:42 10° ESE 11:31:26 11° E 11:33:12 10° E daylight
26 Nov - 13:07:01 10° SSW 13:12:22 67° ESE 13:18:09 10° NE daylight
26 Nov - 14:50:02 10° W 14:54:59 31° NW 15:00:12 10° NNE daylight
26 Nov - 16:35:55 10° NW 16:39:02 14° NNW 16:42:13 10° NNE daylight
26 Nov - 18:20:34 10° NNW 18:23:44 14° NNE 18:26:53 10° NE visible
26 Nov - 20:02:35 10° NNW 20:07:49 31° NE 20:12:56 10° E visible
26 Nov - 21:44:34 10° NW 21:50:31 73° WSW 21:56:13 10° SSE visible
26 Nov - 23:28:47 10° WNW 23:31:37 14° WSW 23:34:24 10° SW night (unlit)
27 Nov - 12:17:58 10° S 12:22:55 38° ESE 12:28:12 10° NE daylight
27 Nov - 13:59:37 10° WSW 14:04:57 47° NW 14:10:38 10° NNE daylight
27 Nov - 15:44:46 10° WNW 15:48:34 18° NNW 15:52:28 10° NNE daylight
27 Nov - 17:30:29 10° NNW 17:33:10 13° N 17:35:51 10° NNE visible
27 Nov - 19:13:01 10° NNW 19:17:35 22° NNE 19:22:06 10° E visible
27 Nov - 20:54:51 10° NNW 21:00:49 69° NE 21:06:33 10° SE visible
27 Nov - 22:37:44 10° NW 22:42:28 25° WSW 22:47:02 10° SSW night (unlit)
28 Nov - 11:29:40 10° SSE 11:33:39 21° ESE 11:37:49 10° ENE daylight
28 Nov - 13:09:37 10° SW 13:15:06 77° NW 13:20:59 10° NNE daylight
28 Nov - 14:53:44 10° W 14:58:13 23° NNW 15:02:52 10° NNE daylight
28 Nov - 16:39:53 10° NNW 16:42:36 13° N 16:45:18 10° NNE daylight
28 Nov - 18:23:24 10° NNW 18:27:13 17° NNE 18:31:00 10° ENE visible
28 Nov - 20:05:14 10° NNW 20:10:55 43° NE 20:16:26 10° ESE visible
28 Nov - 21:47:31 10° NW 21:53:07 44° WSW 21:58:30 10° S visible
29 Nov - 10:43:16 10° ESE 10:44:33 11° E 10:45:53 10° E daylight
29 Nov - 12:20:05 10° SSW 12:25:27 64° ESE 12:31:13 10° NE daylight
29 Nov - 14:03:00 10° WSW 14:08:01 33° NW 14:13:19 10° NNE daylight
29 Nov - 15:48:50 10° NW 15:52:02 15° NNW 15:55:18 10° NNE daylight
29 Nov - 17:33:38 10° NNW 17:36:44 14° NNE 17:39:49 10° NE visible
29 Nov - 19:15:40 10° NNW 19:20:51 30° NE 19:25:54 10° E visible
29 Nov - 20:57:38 10° NW 21:03:36 77° WSW 21:09:17 10° SSE visible
29 Nov - 22:41:41 10° WNW 22:44:44 15° WSW 22:47:44 10° SW night (unlit)
30 Nov - 11:31:06 10° S 11:36:00 36° ESE 11:41:14 10° NE daylight
30 Nov - 13:12:37 10° WSW 13:18:00 49° NW 13:23:43 10° NNE daylight
30 Nov - 14:57:41 10° WNW 15:01:34 18° NNW 15:05:33 10° NNE daylight
30 Nov - 16:43:29 10° NNW 16:46:09 13° N 16:48:50 10° NNE visible
30 Nov - 18:26:06 10° NNW 18:30:36 22° NNE 18:35:02 10° ENE visible
30 Nov - 20:07:55 10° NNW 20:13:52 66° NE 20:19:35 10° SE visible
30 Nov - 21:50:45 10° NW 21:55:35 27° WSW 22:00:13 10° SSW visible
